Temperature
10 10 10 10 10 10 10 10 9 9 9 9 9 9 9 9 9 9 9 9 9 9 9 9 9 9 9 9 9 9 9 9 9 9 8 8 8 8 8 8 8 9 8
9 9 9 9 10 10 9 9 9 9 9 9 9 9 9 9 9 9 9 9 9 8 8 8 8 8 8 8 8 8 8 8 8 8 8 7 7 8 8 8 8 8 8
9 9 9 9 9 9 9 9 9 9 9 8 8 8 8 8 8 8 8 8 8 8 8 8 8 8 8 8 8 8 8 8 8 8 8 7 7 7 7 7 7 7 7
9 9 9 9 9 9 9 9 9 9 8 8 8 8 8 8 8 8 8 8 8 8 8 8 7 7 7 8 7 7 7 8 8 7 7 7 7 7 6 6 6 6 7
8 8 9 9 9 9 9 9 8 8 8 8 8 8 7 7 8 7 7 8 7 7 7 7 7 7 7 7 7 7 7 7 7 7 7 7 7 7 6 6 6 6 6
8 8 8 9 8 8 8 8 8 8 8 7 7 7 7 7 7 7 7 7 7 7 7 7 7 7 7 7 7 7 7 7 7 7 7 6 6 6 6 6 6 5 6
7 7 8 8 8 8 8 7 7 7 7 7 7 7 7 7 7 7 7 7 7 7 7 6 6 6 6 6 6 6 6 6 6 6 6 6 6 6 6 6 5 5 5
7 7 7 7 7 7 7 7 7 7 7 7 7 7 7 7 7 7 7 7 6 6 6 6 6 6 6 6 6 6 6 6 6 6 6 6 6 6 5 5 5 4 4
6 7 7 7 7 7 7 7 7 7 7 7 7 6 6 6 6 6 6 6 6 6 6 6 6 6 6 6 5 5 5 5 6 5 5 5 5 5 5 5 4 4 3
6 6 6 6 6 6 7 6 6 7 7 6 6 6 6 6 6 6 6 6 6 6 6 5 5 5 5 5 5 5 5 5 5 5 5 5 5 5 5 4 4 4 3
5 6 6 6 6 6 6 6 6 6 6 6 6 6 6 6 5 5 5 5 5 5 5 5 5 5 5 5 5 5 5 5 5 4 4 4 4 4 4 4 3 3 3
5 5 5 5 5 5 5 5 6 6 6 6 6 5 5 5 5 5 5 5 5 5 5 5 5 5 5 5 5 5 4 4 4 4 4 4 4 4 3 3 3 3 3
4 4 4 4 4 5 5 5 5 5 5 5 5 5 5 5 5 5 4 4 4 4 4 4 4 4 4 4 4 4 4 4 3 3 3 3 3 3 3 3 3 2 2
3 3 3 4 4 4 4 4 4 4 4 4 4 4 4 4 4 4 4 4 4 4 4 4 4 4 4 4 3 3 3 3 3 3 3 3 3 2 2 2 2 2 2
2 2 3 3 3 3 3 4 4 4 4 4 4 4 4 4 4 4 4 4 3 3 3 3 3 3 3 3 3 3 3 3 3 2 2 2 2 2 2 2 1 1 1
1 2 2 2 3 3 3 3 3 3 3 3 3 3 3 3 3 3 3 3 3 3 3 3 3 3 3 2 2 2 2 2 2 2 2 2 2 2 1 1 1 1 1
1 1 2 2 2 2 3 3 3 3 3 3 3 3 3 3 3 3 2 2 2 2 2 2 2 2 2 2 2 2 2 2 2 2 1 1 1 1 1 1 1 1 0
1 1 1 2 2 2 2 2 2 2 3 3 2 2 2 2 2 2 2 2 2 2 2 2 2 2 2 2 2 2 1 1 1 1 1 1 1 1 1 0 0 0 0
1 1 1 1 2 2 2 2 2 2 2 2 2 2 2 2 2 2 1 1 1 1 1 1 1 1 1 1 1 1 1 1 1 1 1 0 0 0 0 -0 -0 -0 -0
1 1 1 1 1 2 2 2 2 2 2 2 2 2 2 2 1 1 1 1 1 1 1 1 1 1 1 1 1 0 0 0 0 0 0 0 -0 -0 -0 -1 -1 -1 -1
0 0 1 1 1 1 1 1 1 1 1 1 1 1 1 1 1 1 1 1 0 0 0 0 0 0 0 0 0 -0 -0 -0 -0 -0 -0 -0 -0 -0 -1 -1 -1 -1 -1
-0 0 0 0 0 0 1 1 1 1 1 1 1 0 0 0 0 0 0 -0 -0 -0 -0 -0 -0 -0 -0 -0 -0 -1 -1 -1 -1 -1 -1 -1 -1 -1 -1 -1 -1 -2 -2
-1 -0 -0 -0 -0 0 0 0 0 0 0 0 0 -0 -0 -0 -0 -0 -0 -1 -1 -1 -1 -1 -1 -1 -1 -1 -1 -1 -1 -1 -1 -1 -1 -1 -1 -1 -2 -2 -2 -2 -2
-1 -1 -1 -1 -1 -1 -0 -0 -0 -0 -0 -0 -1 -1 -1 -1 -1 -1 -1 -1 -1 -1 -1 -1 -1 -1 -1 -1 -2 -2 -2 -2 -2 -2 -2 -2 -2 -2 -2 -2 -2 -3 -3
-2 -2 -2 -1 -1 -1 -1 -1 -1 -1 -1 -1 -1 -1 -1 -1 -1 -1 -2 -2 -2 -2 -2 -2 -2 -2 -2 -2 -2 -2 -2 -2 -2 -2 -2 -2 -2 -2 -2 -3 -3 -3 -3
-3 -3 -2 -2 -2 -2 -2 -2 -2 -1 -1 -1 -2 -2 -2 -2 -2 -2 -2 -2 -2 -2 -2 -2 -2 -2 -2 -2 -2 -3 -3 -3 -3 -3 -3 -3 -3 -3 -3 -3 -3 -4 -4
Wind_Speed
6 5 5 5 5 5 5 6 5 5 5 3 3 2 2 2 2 2 3 5 5 5 5 3 3 3 3 3 3 3 3 2 3 3 2 2 2 2 2 3 3 4 5
4 4 5 5 6 6 6 6 6 6 6 5 3 2 2 2 2 2 2 4 5 5 4 4 3 3 3 4 4 4 2 2 2 2 3 1 1 2 2 1 1 2 3
7 5 5 6 6 6 7 7 7 6 6 5 3 2 2 2 1 1 1 2 4 4 4 4 4 4 4 4 4 5 4 3 1 1 3 3 3 1 1 1 0 0 1
6 5 6 6 6 6 6 6 6 6 6 6 6 5 4 3 3 2 2 2 3 4 4 5 5 4 4 5 5 4 3 5 3 1 0 1 3 3 1 1 1 1 1
5 5 5 7 6 6 6 6 6 6 6 6 7 6 4 3 2 2 2 2 1 2 3 4 4 4 4 5 5 4 3 3 4 4 2 1 1 2 2 2 2 1 2
4 4 3 3 4 4 4 5 6 6 6 6 6 6 5 4 4 3 3 2 1 1 2 3 4 4 4 4 5 5 4 4 4 4 3 3 2 2 2 2 3 2 2
4 3 3 3 3 4 5 5 6 6 6 6 6 6 6 6 6 5 4 3 2 2 3 3 3 3 4 4 4 4 4 5 5 5 3 3 2 2 2 2 2 2 2
3 3 3 4 4 4 5 5 6 6 6 6 5 5 4 4 4 4 4 4 3 3 3 3 3 4 4 4 4 3 3 4 5 4 4 3 2 3 3 3 2 2 2
2 2 2 2 3 4 4 5 6 5 5 6 5 5 4 4 4 3 3 3 2 2 3 3 3 3 4 4 4 3 3 4 4 4 4 3 2 2 3 3 4 4 3
0 0 0 1 3 3 3 3 4 5 5 5 5 4 4 4 4 3 3 3 3 2 3 3 3 3 3 4 4 3 3 4 3 3 3 3 2 2 2 3 3 3 4
0 0 1 0 1 2 3 3 3 3 3 4 4 4 4 4 3 3 3 3 3 3 3 4 4 4 4 4 4 4 4 4 3 3 3 3 3 3 2 2 2 3 3
1 1 1 2 2 1 2 3 3 3 3 3 3 3 3 3 3 3 3 3 3 3 3 4 4 4 4 4 4 4 4 4 4 3 3 3 3 3 2 2 3 3 3
2 2 3 2 1 1 1 1 2 2 3 3 3 3 3 3 3 3 3 3 3 3 2 3 4 4 4 4 4 4 4 3 4 4 4 3 3 3 2 2 3 3 3
2 2 2 2 2 1 0 1 1 2 3 3 3 3 3 3 3 3 2 3 3 3 3 3 3 3 3 3 3 4 4 3 3 3 3 3 4 4 3 3 3 3 3
3 3 2 2 2 2 1 0 0 2 3 3 3 3 2 2 3 3 3 3 3 3 3 3 2 2 2 3 4 4 4 3 3 2 2 3 3 4 4 3 3 3 3
2 3 3 2 2 2 1 1 1 1 2 3 3 2 3 3 3 3 3 3 3 3 2 2 2 2 2 3 4 4 4 4 3 3 2 3 3 4 4 5 5 4 4
2 2 2 2 2 2 1 1 1 1 2 3 3 3 3 3 3 3 3 3 3 3 2 2 2 2 2 3 4 3 3 3 3 3 3 2 3 3 2 4 4 4 6
2 2 2 3 2 2 1 1 1 2 2 2 2 2 3 3 3 3 3 3 2 3 2 2 2 2 1 2 3 3 2 2 3 3 3 3 3 3 3 3 3 3 3
3 2 2 2 2 2 1 1 1 1 2 2 2 2 3 3 3 3 3 2 2 2 2 1 2 2 1 2 3 2 2 2 2 2 3 3 4 6 5 3 3 3 3
3 2 2 3 2 2 1 2 1 1 1 1 1 2 2 3 3 3 2 1 2 2 2 1 1 2 1 2 2 2 2 2 2 2 3 5 5 6 5 3 3 4 4
3 2 2 2 2 2 2 2 1 0 1 1 2 2 2 2 3 2 2 2 2 2 2 1 1 1 1 2 2 2 1 3 2 2 2 3 4 5 5 4 3 5 4
4 3 3 3 3 2 2 2 1 1 1 2 3 2 2 2 3 3 2 2 2 2 1 1 0 0 1 2 2 2 2 2 2 2 3 3 4 4 4 3 4 4 3
4 4 3 4 4 4 2 2 1 1 2 3 3 2 2 2 2 3 2 2 2 2 1 1 1 1 1 1 3 3 3 3 2 2 4 3 3 3 2 3 3 2 1
4 4 4 4 4 5 3 2 1 2 3 2 2 2 2 2 2 1 1 1 2 2 2 2 2 1 1 1 2 2 2 2 2 2 2 2 1 2 2 2 1 1 2
4 4 3 3 3 4 4 3 2 3 3 2 2 1 1 1 1 1 1 1 2 3 3 3 3 3 3 4 4 3 2 2 2 1 0 0 0 1 1 1 1 1 1
4 4 4 4 4 4 4 4 3 2 2 1 1 1 0 0 0 0 2 2 2 3 3 4 4 4 5 5 5 4 4 3 2 1 1 1 1 1 2 2 2 2 2
Wind_Direction
233 206 191 186 177 169 171 173 167 166 156 152 155 162 179 189 185 175 165 161 161 161 152 148 146 149 162 160 143 132 126 112 124 102 71 32 48 65 60 74 81 79 81
227 205 189 182 180 179 181 179 179 174 173 176 171 168 168 182 186 168 153 165 165 165 162 154 161 160 155 149 149 139 136 135 144 134 121 78 4 15 33 45 94 86 82
218 208 197 196 188 188 188 188 186 180 177 169 145 111 99 85 123 175 182 172 168 166 164 165 162 164 166 170 170 163 156 163 180 141 140 150 197 249 314 285 125 122 98
219 207 195 195 198 199 192 185 182 179 176 167 164 162 170 183 203 196 184 163 165 167 171 167 165 167 167 173 180 176 173 165 172 173 63 142 143 156 205 281 271 250 239
210 207 200 195 197 193 188 184 177 177 172 168 170 171 177 183 167 157 156 161 169 167 171 167 165 172 173 176 178 177 176 180 174 168 162 140 98 130 161 224 259 281 252
204 203 198 178 180 177 176 173 172 174 171 170 169 172 173 170 162 165 172 179 194 196 182 171 170 175 180 185 184 182 180 185 176 171 165 171 170 173 169 201 231 250 264
193 191 188 184 179 175 174 174 172 173 172 172 173 178 180 177 182 183 183 184 192 214 215 186 179 182 187 184 175 175 183 182 177 179 174 178 188 168 171 175 217 258 275
198 197 198 192 188 183 176 177 178 176 173 174 176 177 176 178 189 187 185 189 199 207 196 182 176 176 172 170 164 167 179 173 174 174 171 175 184 170 177 178 184 263 271
212 205 203 190 187 182 182 181 179 176 179 177 172 171 174 175 179 182 179 181 185 183 169 167 163 155 156 157 154 161 168 163 167 172 175 178 185 180 182 181 184 195 246
188 204 188 194 188 176 164 161 162 171 174 171 175 175 176 175 170 166 169 172 177 167 163 165 156 149 148 149 148 152 158 153 160 167 169 183 189 178 181 187 199 201 219
286 341 333 84 154 138 141 146 147 141 150 163 166 160 169 164 156 164 177 171 163 164 168 168 160 154 153 154 153 156 155 154 158 165 174 197 198 189 190 185 201 210 209
41 45 45 59 66 104 142 150 152 150 152 146 146 157 159 157 160 167 175 165 158 160 166 162 156 158 157 159 160 162 156 163 171 181 182 196 197 197 197 194 207 222 220
45 46 48 46 39 66 123 147 141 142 136 133 132 131 144 157 163 169 167 155 147 147 151 147 153 160 161 164 168 165 162 170 181 186 194 200 189 206 214 212 216 231 239
33 32 40 33 14 10 88 137 140 137 139 137 140 146 155 159 153 144 140 145 144 150 153 145 155 158 157 164 165 162 162 166 179 186 196 202 201 210 214 223 220 224 228
16 7 0 8 16 8 3 55 149 143 144 145 151 160 153 143 137 130 128 124 125 133 130 127 133 144 156 170 165 164 166 167 172 188 203 211 218 228 233 239 224 216 225
344 346 344 350 357 348 330 307 238 185 153 156 161 149 135 133 132 131 129 126 120 120 121 134 149 156 171 174 177 174 170 172 180 195 212 223 234 241 252 260 258 243 237
326 330 323 313 307 303 300 264 242 180 157 159 156 151 141 138 142 138 130 133 133 125 130 146 152 168 183 182 185 185 172 180 194 204 215 235 243 264 245 257 265 263 264
305 311 319 324 321 319 326 311 158 151 153 148 147 150 143 141 139 135 139 137 131 136 145 153 163 163 189 197 199 196 179 185 207 212 216 225 235 238 241 234 241 247 257
303 299 308 324 333 337 354 54 99 121 132 153 159 162 152 142 138 141 145 133 130 129 137 153 152 158 200 207 196 187 164 192 227 230 227 231 234 244 251 236 237 260 272
348 355 8 12 8 353 39 83 85 101 171 200 175 157 145 143 145 148 140 115 127 134 134 125 143 167 196 210 195 190 169 196 233 247 242 247 249 251 245 230 223 245 267
357 21 43 30 9 15 65 73 69 8 296 83 107 103 109 129 136 130 123 126 118 117 118 124 125 169 206 219 208 211 194 202 217 245 263 255 257 261 253 251 235 250 273
13 32 41 22 11 27 75 79 43 354 53 83 91 92 88 104 115 115 110 117 130 132 131 139 270 253 247 248 233 237 253 246 222 242 259 257 264 274 272 268 260 269 289
18 29 41 27 15 16 59 93 7 53 75 81 78 78 78 82 106 120 126 126 138 154 176 189 228 264 271 267 264 262 262 264 266 249 262 272 277 293 286 275 271 280 266
17 28 40 33 14 7 26 47 49 68 80 84 74 73 82 73 76 96 127 148 171 181 197 211 227 244 257 257 251 241 250 262 271 262 253 276 306 321 306 304 302 275 244
13 25 33 28 12 11 24 30 40 66 69 70 72 75 75 92 81 56 201 207 216 216 214 218 217 219 242 253 252 245 234 226 226 228 179 221 274 310 299 293 296 301 289
15 19 21 24 19 21 24 19 25 52 70 66 63 80 87 88 105 20 341 321 288 278 265 249 249 251 252 261 262 265 259 252 233 235 189 224 233 250 266 276 290 286 277
Height
1465 1467 1468 1470 1472 1474 1476 1478 1480 1482 1483 1485 1487 1489 1491 1493 1495 1497 1499 1500 1502 1503 1505 1506 1508 1510 1512 1513 1515 1517 1518 1520 1521 1523 1524 1526 1528 1529 1531 1532 1533 1534 1535
1460 1462 1464 1466 1468 1469 1472 1474 1476 1478 1480 1482 1484 1486 1488 1490 1492 1494 1495 1497 1499 1500 1502 1503 1505 1507 1509 1511 1512 1514 1515 1516 1519 1520 1521 1523 1526 1526 1528 1529 1530 1531 1532
1456 1458 1459 1461 1463 1465 1468 1470 1472 1474 1477 1479 1481 1483 1485 1487 1489 1490 1492 1494 1496 1497 1499 1500 1502 1504 1506 1507 1509 1510 1512 1513 1515 1517 1519 1520 1520 1522 1524 1525 1527 1528 1529
1452 1453 1455 1457 1459 1461 1464 1466 1468 1471 1473 1475 1477 1479 1481 1483 1485 1487 1489 1490 1492 1494 1496 1497 1499 1501 1502 1504 1505 1507 1509 1510 1512 1514 1515 1517 1517 1519 1520 1522 1523 1524 1525
1448 1449 1451 1453 1455 1458 1460 1462 1464 1467 1469 1472 1474 1476 1479 1481 1483 1484 1485 1487 1489 1491 1492 1494 1496 1497 1499 1501 1502 1503 1505 1507 1509 1510 1512 1513 1514 1515 1516 1517 1519 1520 1521
1446 1447 1448 1450 1452 1454 1457 1459 1461 1463 1466 1468 1471 1473 1475 1477 1479 1480 1482 1484 1486 1487 1489 1490 1492 1494 1495 1497 1498 1500 1502 1504 1506 1507 1509 1510 1511 1511 1513 1513 1514 1515 1516
1443 1445 1446 1447 1449 1451 1453 1455 1457 1460 1462 1465 1467 1470 1472 1474 1475 1477 1479 1480 1482 1483 1485 1487 1488 1490 1492 1493 1495 1496 1498 1500 1502 1504 1505 1507 1508 1509 1510 1511 1511 1511 1511
1441 1442 1443 1445 1447 1448 1450 1452 1454 1457 1459 1461 1464 1467 1469 1471 1473 1474 1476 1477 1479 1480 1482 1483 1484 1486 1488 1489 1491 1492 1494 1496 1498 1500 1502 1503 1505 1506 1507 1508 1508 1507 1507
1439 1440 1442 1443 1445 1446 1448 1450 1452 1454 1456 1458 1461 1464 1466 1468 1469 1471 1473 1474 1476 1477 1478 1480 1481 1482 1484 1486 1488 1489 1490 1492 1494 1496 1498 1500 1501 1502 1503 1504 1505 1506 1504
1438 1439 1440 1441 1443 1444 1446 1448 1450 1451 1453 1456 1458 1460 1462 1465 1467 1468 1469 1470 1472 1473 1475 1476 1478 1479 1481 1483 1484 1486 1487 1489 1491 1493 1494 1496 1497 1498 1499 1500 1501 1502 1502
1437 1438 1439 1440 1441 1443 1444 1446 1447 1449 1451 1453 1455 1457 1459 1461 1463 1465 1466 1467 1468 1470 1471 1473 1474 1476 1478 1479 1481 1482 1484 1485 1487 1489 1490 1492 1493 1494 1495 1496 1496 1497 1498
1436 1437 1438 1439 1440 1441 1442 1444 1445 1447 1449 1451 1452 1454 1457 1458 1460 1462 1463 1464 1465 1466 1468 1470 1471 1473 1475 1476 1477 1479 1480 1482 1483 1485 1486 1488 1489 1489 1491 1491 1492 1493 1493
1436 1437 1437 1438 1439 1440 1441 1443 1444 1445 1447 1449 1450 1452 1454 1455 1457 1459 1460 1461 1462 1464 1465 1467 1468 1470 1472 1473 1474 1476 1477 1479 1480 1482 1483 1484 1485 1485 1486 1487 1487 1488 1488
1437 1437 1437 1437 1439 1439 1440 1441 1442 1444 1445 1446 1448 1449 1451 1453 1454 1456 1457 1458 1459 1461 1462 1464 1465 1467 1469 1470 1471 1473 1474 1475 1477 1478 1479 1480 1481 1482 1482 1482 1483 1483 1484
1437 1437 1437 1437 1438 1439 1439 1440 1441 1442 1443 1444 1446 1447 1448 1450 1452 1453 1454 1456 1457 1458 1460 1461 1463 1464 1466 1467 1468 1470 1471 1472 1473 1475 1476 1477 1477 1478 1478 1479 1479 1479 1479
1437 1437 1437 1436 1436 1437 1438 1439 1439 1440 1441 1442 1443 1445 1446 1447 1449 1450 1452 1453 1454 1456 1457 1459 1460 1462 1463 1464 1466 1467 1468 1469 1470 1471 1472 1473 1474 1474 1474 1475 1475 1476 1476
1437 1436 1436 1436 1436 1436 1437 1437 1438 1439 1439 1440 1441 1442 1444 1445 1446 1448 1449 1450 1452 1453 1455 1457 1458 1459 1461 1462 1463 1464 1465 1466 1467 1468 1469 1469 1470 1470 1471 1471 1471 1471 1471
1435 1435 1434 1434 1435 1435 1436 1436 1437 1437 1438 1438 1439 1440 1442 1443 1444 1446 1447 1448 1450 1451 1453 1454 1456 1457 1458 1459 1460 1461 1462 1463 1464 1465 1465 1466 1466 1466 1467 1466 1467 1467 1467
1434 1434 1433 1433 1434 1434 1434 1435 1435 1435 1436 1437 1438 1439 1440 1441 1442 1444 1445 1446 1448 1449 1451 1452 1453 1454 1455 1457 1457 1459 1459 1460 1461 1462 1462 1462 1463 1463 1463 1463 1462 1462 1462
1432 1432 1432 1432 1432 1433 1433 1433 1434 1434 1435 1435 1436 1437 1438 1439 1441 1442 1443 1444 1446 1447 1448 1450 1451 1452 1453 1454 1455 1456 1456 1457 1458 1458 1459 1459 1459 1459 1459 1459 1459 1458 1458
1432 1432 1431 1431 1431 1432 1432 1432 1433 1433 1434 1435 1435 1436 1437 1438 1439 1440 1442 1443 1444 1445 1446 1447 1448 1449 1450 1451 1452 1452 1453 1454 1454 1454 1455 1455 1455 1455 1455 1455 1455 1455 1454
1431 1431 1430 1430 1431 1431 1431 1431 1432 1433 1433 1434 1434 1435 1436 1437 1438 1439 1440 1441 1442 1443 1444 1445 1445 1446 1447 1448 1449 1449 1450 1451 1451 1451 1451 1451 1452 1452 1452 1451 1451 1451 1450
1430 1430 1430 1430 1430 1431 1431 1431 1431 1432 1432 1433 1433 1434 1435 1436 1437 1437 1438 1439 1440 1441 1441 1442 1442 1443 1444 1445 1446 1446 1447 1447 1448 1448 1448 1448 1448 1448 1448 1448 1447 1447 1446
1430 1430 1430 1430 1430 1430 1430 1431 1431 1431 1431 1432 1433 1433 1434 1434 1435 1436 1437 1437 1438 1438 1439 1439 1440 1440 1441 1442 1442 1443 1443 1443 1444 1444 1444 1444 1444 1444 1444 1444 1443 1443 1442
1431 1430 1430 1430 1430 1430 1430 1431 1430 1430 1430 1431 1432 1432 1433 1433 1433 1434 1435 1435 1436 1436 1437 1437 1437 1438 1438 1439 1440 1440 1440 1440 1441 1441 1441 1441 1440 1440 1440 1440 1440 1439 1438
1431 1430 1430 1430 1429 1429 1429 1430 1430 1430 1430 1430 1431 1431 1431 1432 1432 1432 1433 1433 1434 1434 1434 1434 1435 1435 1436 1436 1436 1437 1437 1437 1438 1438 1437 1437 1437 1436 1436 1435 1435 1435 1434